Вернуться в каталог

STARLINK-30431

АктивенСвязьVLEO
NORAD 57852·PAYLOAD·🇺🇸 United States

Запущен Sep 12, 2023 с Vandenberg Space Force Base

Loading…

Ближайшие Пролёты (ближайшие 24 часа)

TLE

СвежийSource: CelesTrak SupGP

Эпоха: Sep 14, 2026, 22:26 UTC

1 57852C 23141N   26257.93520833 -.00033833  00000+0 -99970-3 0  2578
2 57852  53.1582 123.6767 0001354  74.1160 243.1126 15.34403865    16

Отслеживайте STARLINK-30431 в реальном времени с AllMySat

Download on the App Store